Dewpoint
54 61 57 60 58 62 64 65 63 63 63 62 63 64 64 64 64 63 65 65 64 64 64 64 63 63 62 62 60 59 56 60 60 62 61 63 64 61 64 65 67 67 66 66 66 65 65 66 65 65 65 64 64 65 65 65 65 65 65 65 64 63 62 64 65 65 61 60 62 62 63 64 63 63 63 64 60 63 61 60 61 62 62 63 64
54 59 58 57 57 62 63 62 61 61 62 62 62 63 64 63 63 64 65 64 64 64 63 63 62 60 61 57 56 55 54 55 57 60 62 64 65 65 66 65 67 67 66 66 66 66 65 65 65 65 65 63 64 65 65 65 64 64 64 63 63 62 63 64 64 64 61 59 59 60 61 62 63 63 61 58 60 56 57 57 59 57 59 61 62
60 60 59 59 57 61 61 62 62 62 61 61 62 63 62 62 63 63 62 63 64 64 65 63 61 63 64 63 58 55 54 59 54 57 58 60 65 64 66 65 66 66 67 66 65 64 66 66 65 65 65 64 65 65 65 65 64 64 63 63 62 63 62 62 63 64 61 60 61 59 57 57 60 61 63 60 60 60 57 54 55 53 53 55 59
50 55 57 58 60 62 62 61 61 61 62 61 62 61 62 62 62 62 62 63 63 63 64 64 64 64 62 58 59 58 55 60 62 62 60 58 59 61 64 65 65 64 64 64 65 65 65 65 64 65 65 66 66 65 64 64 64 63 63 62 62 61 61 61 62 63 63 59 57 56 56 56 54 57 58 60 58 57 56 55 52 50 51 52 56
55 55 59 59 60 62 61 60 61 61 61 61 61 61 62 61 63 62 62 63 63 62 61 63 64 63 61 61 59 60 61 61 61 61 60 60 60 62 62 65 61 60 64 64 63 65 65 66 66 66 66 66 66 65 65 65 64 63 63 63 62 61 60 61 61 63 63 63 60 56 56 54 53 55 56 57 59 56 52 50 55 49 49 51 55
60 58 59 59 61 62 60 60 61 61 61 61 61 62 62 62 62 62 63 63 62 61 61 62 65 62 61 60 59 59 59 61 58 59 59 63 54 62 59 58 59 64 61 61 65 65 65 66 66 64 66 65 64 65 65 64 63 63 62 62 63 62 59 59 59 62 63 63 63 63 60 56 54 54 54 52 58 57 54 48 48 50 54 50 50
58 58 58 58 59 61 60 60 60 61 61 62 62 62 62 62 62 62 62 62 62 62 62 63 64 62 62 60 61 60 58 59 61 63 61 58 62 61 60 65 59 61 63 61 62 62 63 64 65 64 64 65 64 64 63 63 62 61 63 63 63 62 62 60 59 59 62 62 63 63 63 62 59 55 54 52 49 52 52 49 49 48 49 48 48
56 57 60 59 60 60 60 61 61 61 61 62 62 62 63 62 62 62 62 63 63 63 64 65 63 63 63 62 61 59 59 59 60 59 60 59 62 62 58 60 60 57 63 60 61 60 63 62 63 64 63 61 62 62 62 62 62 61 62 61 61 61 60 59 60 60 60 59 63 62 62 60 60 59 60 59 51 48 47 48 48 51 52 52 50
57 58 59 58 59 60 60 61 61 61 62 62 62 63 63 62 62 63 62 62 63 64 63 64 63 62 62 61 61 59 58 58 56 58 59 60 60 62 58 55 58 62 59 61 59 60 62 58 62 63 61 61 54 58 60 58 62 63 64 65 63 62 62 63 62 60 60 59 60 61 60 60 61 60 60 59 56 48 46 46 47 51 53 53 51
57 59 59 59 59 59 61 62 61 62 63 63 63 63 63 64 64 64 64 64 65 66 64 63 63 62 62 62 61 58 59 59 56 58 59 61 57 60 62 61 59 63 66 62 63 58 60 63 59 59 62 58 58 58 59 61 64 63 63 64 64 62 63 63 61 61 61 61 61 61 60 58 58 59 59 58 56 52 46 43 46 47 47 49 53
56 58 59 59 60 61 62 61 61 62 63 63 63 64 64 65 65 65 65 66 66 64 62 62 62 63 60 61 59 59 59 58 57 57 58 61 57 60 65 60 64 60 63 64 60 59 61 61 63 59 60 61 59 58 60 62 65 66 65 64 63 63 63 63 63 63 61 60 58 61 61 61 58 56 56 55 54 51 45 45 44 41 44 48 51
57 58 58 59 60 59 61 61 61 61 62 63 63 63 63 64 64 63 64 65 65 64 63 62 61 61 61 61 60 59 59 57 57 57 57 57 57 59 59 63 60 61 65 61 61 61 63 63 63 61 62 62 61 61 60 60 64 65 64 64 63 64 64 63 63 61 59 59 58 58 58 58 58 56 55 56 55 48 47 45 40 38 37 36 38
57 57 57 59 58 58 60 61 61 61 62 62 62 62 63 63 62 62 63 64 64 65 64 62 61 60 60 60 60 61 60 59 57 58 60 58 59 58 57 58 59 59 60 59 60 62 61 63 64 60 60 60 60 58 59 60 61 62 63 62 61 61 63 62 60 60 61 60 58 59 57 55 55 56 56 55 55 52 47 41 37 39 39 37 35
57 58 57 59 60 60 60 60 59 60 61 62 61 62 61 62 61 61 62 63 63 64 64 63 62 61 60 60 60 59 61 60 59 57 61 58 59 58 60 58 59 59 59 60 61 62 62 60 60 60 59 61 61 62 61 59 60 59 61 61 60 61 61 60 60 60 60 58 60 51 49 48 49 54 52 55 53 52 52 45 43 41 39 35 33
56 57 57 57 60 59 59 59 59 59 60 61 61 62 63 61 61 61 61 62 63 63 63 63 62 62 61 61 61 61 61 61 61 58 60 57 57 60 61 61 60 58 60 60 59 59 61 61 60 61 61 61 61 60 60 58 59 56 57 60 59 59 58 58 57 56 53 51 53 48 46 47 55 52 54 50 51 56 51 46 41 41 43 40 36
54 56 56 57 61 59 59 59 59 59 60 61 61 62 62 62 62 62 61 61 62 62 62 63 63 62 63 62 63 62 60 61 58 58 59 60 60 60 60 60 59 58 58 59 60 59 57 58 59 60 60 61 61 61 59 58 59 58 56 54 52 52 55 53 52 53 55 55 54 54 50 49 50 50 50 48 50 49 48 50 48 45 43 37 40
54 54 56 58 61 60 60 59 59 59 59 60 60 61 61 62 62 62 61 61 61 61 62 63 62 62 63 63 62 62 61 60 58 59 59 59 60 61 61 59 58 58 57 60 60 60 61 58 57 58 60 59 57 56 56 57 57 56 55 55 54 54 53 52 55 54 54 52 50 51 51 50 50 52 51 52 51 53 53 58 47 49 49 43 40
56 57 57 59 58 60 61 60 60 59 58 59 60 61 62 61 61 61 61 60 61 61 61 62 62 62 63 63 62 62 61 59 58 58 59 60 61 60 58 58 57 57 57 58 60 59 57 56 57 58 58 58 58 57 53 53 56 55 54 53 53 54 53 54 54 54 54 55 54 51 51 51 53 52 53 52 50 49 50 52 48 49 49 48 48
56 56 56 57 56 58 58 60 60 60 60 59 59 60 61 61 60 60 60 60 60 61 61 61 61 62 62 62 62 61 61 59 58 58 59 59 59 59 58 58 58 57 56 57 57 56 57 56 56 55 57 56 54 54 55 54 52 52 52 51 53 53 52 52 54 54 54 54 53 53 54 54 55 54 53 53 54 58 51 46 51 51 51 51 43
55 56 56 57 57 58 58 58 59 60 60 59 59 59 60 60 60 60 60 60 60 60 61 61 61 62 62 62 61 60 59 57 57 57 56 56 56 57 58 58 58 56 56 56 56 54 53 52 54 53 54 54 53 54 54 53 53 51 52 51 51 51 49 50 52 54 49 53 52 52 53 53 54 52 50 50 50 52 52 51 51 51 49 53 49
55 55 57 57 58 57 58 59 59 58 59 59 58 59 59 59 59 59 60 59 59 60 60 61 62 61 61 62 61 62 60 56 56 56 54 55 55 57 58 58 55 57 57 56 54 53 49 51 49 50 50 53 54 54 54 53 52 54 51 50 50 48 47 50 52 52 50 52 49 49 50 51 52 51 52 54 50 47 52 53 51 49 48 48 50
56 55 57 56 55 55 52 52 56 55 57 58 60 58 57 57 57 58 57 57 58 58 59 60 61 61 61 62 61 61 58 56 57 57 55 54 55 56 58 57 58 57 56 54 52 54 52 50 46 47 50 49 52 52 52 53 52 53 52 53 52 50 48 49 51 50 51 50 53 49 49 52 51 50 49 42 41 45 42 41 49 51 46 51 48
55 52 52 53 52 50 49 52 53 54 54 56 58 57 57 56 56 57 56 56 57 57 58 59 60 61 61 61 61 60 58 57 58 57 56 54 55 56 54 56 56 57 57 54 52 54 52 50 48 49 46 49 50 51 54 54 53 52 51 53 54 51 52 53 52 49 45 50 50 50 50 51 54 52 52 49 49 47 42 43 45 46 48 47 46
53 51 50 51 51 53 55 55 55 55 56 56 57 56 57 57 56 55 57 56 56 57 57 58 59 60 60 60 59 59 59 57 57 57 57 57 56 56 54 54 52 53 50 52 54 51 53 53 50 46 46 48 49 53 53 49 51 52 52 52 50 51 52 52 50 47 45 50 50 51 52 53 53 52 53 51 52 51 53 48 47 49 51 48 50
50 49 50 53 53 53 53 54 54 54 55 56 56 56 56 56 56 55 55 55 55 57 55 55 57 59 59 60 59 58 59 59 58 57 57 59 58 57 57 52 53 53 52 54 50 51 52 52 53 47 44 46 49 50 51 51 54 53 53 54 51 50 53 52 52 49 52 51 52 52 50 52 53 53 52 53 51 51 47 50 48 47 46 49 53
52 50 50 51 52 53 55 54 52 53 53 54 56 55 55 55 56 59 54 57 56 58 56 58 58 58 58 59 59 58 57 58 58 58 58 60 58 57 57 56 50 49 55 56 51 51 45 46 48 49 46 45 45 50 48 47 48 53 54 54 53 53 53 52 54 50 50 53 54 53 53 52 52 53 55 54 54 51 50 50 50 50 45 48 52
46 48 49 49 51 52 53 54 52 54 54 53 53 54 55 57 58 56 56 56 58 59 58 58 58 58 57 57 57 57 58 58 59 59 59 59 60 60 56 56 54 52 52 55 54 51 52 48 46 49 50 48 47 46 50 52 50 51 52 52 56 55 55 56 53 53 53 54 54 54 55 55 54 53 53 53 52 53 53 53 53 53 49 52 51
43 45 45 45 46 48 51 52 52 52 53 54 55 56 57 58 57 56 55 58 55 58 57 57 58 58 57 57 58 58 58 59 59 59 57 58 58 60 60 59 58 55 52 49 53 54 52 51 49 47 50 50 50 48 48 50 50 54 55 56 56 56 55 56 55 55 56 55 57 56 56 55 55 54 55 56 57 56 54 53 56 53 52 52 50
38 38 38 38 40 47 47 49 49 50 53 54 54 55 57 56 56 56 58 58 57 59 56 57 57 58 58 58 60 59 59 59 57 58 58 59 59 60 59 59 59 59 57 52 52 52 54 50 51 50 48 50 50 50 49 49 49 50 53 55 55 54 56 56 56 56 57 57 58 59 57 56 54 53 49 49 49 50 55 55 56 54 53 51 51
34 34 35 36 36 38 40 44 46 48 48 50 53 54 54 55 56 57 57 58 59 58 58 56 58 57 57 56 57 59 59 59 60 60 60 60 59 61 60 58 58 58 58 58 56 53 50 50 50 50 50 53 51 53 50 46 47 50 52 53 56 56 57 55 56 56 56 57 57 57 59 56 54 52 49 46 44 44 46 52 52 53 54 53 51
34 34 34 34 35 35 35 35 36 37 39 42 51 49 48 50 52 53 53 55 56 57 57 57 57 56 56 56 56 57 57 57 60 59 60 60 60 61 61 59 58 58 58 59 58 56 56 53 49 49 51 54 54 55 43 42 44 45 52 56 57 57 56 56 55 55 56 57 57 56 57 58 57 55 54 47 44 42 41 40 41 43 47 52 51
35 35 35 34 34 34 34 35 35 34 33 34 37 36 37 38 44 47 47 50 55 56 55 55 57 57 55 55 57 56 56 57 59 58 57 59 60 59 59 59 60 59 59 58 59 57 56 57 58 55 55 54 54 48 41 43 44 45 49 56 56 56 56 55 54 53 54 56 57 57 57 58 58 58 59 56 47 41 39 38 38 37 37 37 40
35 35 35 35 35 35 35 34 32 32 32 33 34 34 36 37 39 41 43 47 49 52 51 53 53 52 50 55 53 53 55 57 57 57 59 59 59 58 58 58 58 60 60 59 60 59 57 58 58 57 55 54 51 42 42 42 43 44 46 51 54 55 53 54 53 53 52 56 57 58 56 57 55 56 57 56 52 44 40 39 39 38 37 35 34
35 34 34 35 35 35 35 33 32 31 31 33 35 36 37 37 35 34 38 40 39 39 40 41 43 46 49 48 52 53 53 55 57 57 58 57 57 56 58 58 57 58 60 59 59 58 59 58 58 57 57 55 54 49 43 43 43 43 43 48 54 54 54 53 53 52 53 55 55 55 55 54 54 55 54 55 54 48 44 42 42 44 42 38 35
35 35 36 37 37 37 37 36 32 31 33 34 34 35 36 35 36 34 33 38 36 37 39 40 41 40 40 41 42 46 51 53 56 57 57 55 56 55 56 57 56 57 58 57 57 59 58 58 58 58 58 56 55 48 44 42 43 43 42 45 54 55 55 55 53 53 54 55 55 55 54 53 53 55 54 53 53 50 48 48 47 48 44 45 45
35 34 36 37 38 38 39 39 38 35 34 34 35 35 36 35 36 35 33 34 34 34 33 36 37 37 38 39 40 41 43 44 46 54 55 55 55 58 57 58 58 58 58 58 58 58 57 56 57 59 56 56 56 48 45 42 42 42 42 51 53 54 55 54 54 56 57 55 55 55 52 52 54 50 40 37 42 53 50 49 48 47 45 41 37
37 38 39 37 38 40 41 40 42 41 42 41 41 39 40 37 32 33 33 34 36 35 32 34 35 34 36 36 38 40 43 42 44 45 44 48 55 55 57 57 57 57 58 58 58 58 57 57 57 57 56 55 55 50 45 44 42 41 44 51 52 51 51 52 54 56 57 54 55 53 51 53 51 51 40 36 36 40 50 49 48 47 46 43 41
36 38 39 39 40 41 39 42 41 42 42 44 43 41 40 41 37 32 30 35 35 37 35 35 35 35 35 34 34 35 38 41 42 42 45 47 47 49 51 55 55 55 56 56 56 57 57 57 56 56 56 56 55 52 45 44 43 41 45 51 52 51 50 52 56 55 53 52 50 46 49 52 50 46 35 36 36 46 50 49 48 47 45 42 42
35 38 39 40 38 39 40 42 38 37 39 37 41 43 42 40 42 41 32 33 38 37 36 37 38 36 34 34 35 36 37 40 41 43 46 46 46 46 47 48 51 54 53 53 54 56 55 55 56 56 54 55 55 52 43 43 42 42 45 51 52 51 51 51 54 52 52 49 44 42 44 47 47 41 35 36 37 45 50 49 48 47 45 44 43
24 28 31 30 31 31 33 34 33 32 34 39 30 33 34 34 34 37 39 34 35 35 33 35 35 36 35 34 35 37 39 40 39 41 44 46 46 46 47 47 48 46 46 48 50 50 53 55 56 55 55 55 56 56 53 44 43 42 43 50 53 53 51 52 52 46 48 46 43 43 40 35 35 35 35 35 36 39 50 49 48 46 46 46 45
24 25 30 25 28 32 28 32 31 32 35 34 34 35 35 34 35 35 36 37 37 36 36 35 35 34 34 34 34 36 37 37 37 38 40 41 42 44 46 47 47 46 46 47 49 51 52 53 55 56 56 56 55 55 53 47 44 42 41 45 53 53 53 53 52 48 46 45 44 44 42 37 35 35 35 35 36 37 39 42 40 38 39 43 40
29 29 27 28 27 30 30 30 31 31 32 33 33 34 35 34 34 35 36 35 34 33 35 34 35 34 35 36 36 38 39 40 38 38 38 39 39 40 42 45 45 45 46 47 48 47 47 49 52 55 55 56 55 52 54 47 44 42 41 41 50 54 53 51 49 47 46 47 45 41 39 36 35 35 35 35 35 34 34 34 31 31 32 32 36
29 28 24 26 27 29 30 32 32 33 34 34 34 34 34 34 34 36 35 34 34 35 34 37 35 35 36 36 37 38 38 38 39 39 38 38 38 38 40 40 41 43 44 44 45 46 48 49 50 53 53 55 56 54 48 49 43 41 40 41 44 47 44 50 48 46 47 48 45 42 39 36 35 34 34 34 34 33 33 31 32 32 32 31 35
26 27 26 26 28 29 31 32 33 34 34 34 34 34 34 34 35 36 36 36 35 34 34 35 36 36 36 35 34 36 37 37 37 37 37 37 37 38 38 38 38 40 41 42 42 44 45 45 47 50 52 53 55 55 48 45 44 40 40 41 41 40 44 50 49 47 49 48 43 39 36 34 34 34 34 33 33 33 31 32 32 32 31 34 38
30 30 29 28 28 30 32 32 33 34 34 34 33 34 33 33 35 34 31 32 34 33 35 35 34 34 35 34 35 36 37 36 37 37 36 36 36 36 34 34 34 35 35 36 38 39 41 43 45 48 49 49 50 54 51 45 42 40 40 41 41 41 42 42 49 49 48 45 38 35 34 34 33 33 32 32 32 32 32 31 32 32 36 38 40
30 31 29 29 30 31 32 33 33 33 32 33 32 30 32 33 32 34 32 32 33 33 34 34 32 33 34 32 34 34 33 35 36 35 36 35 35 35 35 33 32 32 32 34 35 35 37 39 40 44 46 46 50 52 52 48 43 42 42 41 41 41 42 41 46 47 38 35 34 34 34 33 33 33 34 33 31 32 32 32 32 34 40 39 36
30 32 30 31 31 30 31 32 32 32 30 29 30 31 30 31 32 32 32 33 32 34 35 35 35 33 34 34 34 33 34 34 35 34 34 34 33 33 34 34 33 31 29 29 30 31 35 36 38 39 48 52 50 52 49 47 47 46 45 41 41 41 39 39 40 37 35 34 34 33 32 32 33 35 35 34 34 33 34 35 35 36 37 36 33
31 32 30 30 31 30 31 30 30 30 31 31 31 30 31 32 33 32 32 33 35 35 34 34 34 34 35 34 34 33 34 34 34 34 34 33 32 34 34 35 34 33 34 34 35 34 32 31 32 49 50 51 52 51 49 48 48 46 43 41 40 39 39 39 37 37 35 33 33 33 34 35 35 34 33 32 32 34 34 34 36 36 33 29 30
30 31 31 31 30 29 31 31 30 32 32 32 32 33 31 33 33 33 34 34 35 36 36 35 35 34 34 35 35 34 34 34 34 34 34 34 34 34 34 34 35 35 38 38 37 38 42 48 46 45 47 48 49 50 49 44 43 41 41 43 40 39 39 37 36 35 36 34 33 34 34 35 34 32 31 31 33 34 35 35 38 36 34 32 33
30 30 30 30 29 30 32 32 32 33 32 32 33 33 33 32 32 33 34 35 36 35 35 34 34 34 34 34 35 34 34 34 34 34 34 34 33 33 33 34 33 34 33 34 38 40 47 47 44 40 40 41 42 44 44 40 41 41 42 41 40 40 37 36 34 33 35 34 33 34 34 33 34 32 31 31 33 34 32 31 29 27 30 31 29
29 29 29 29 30 32 32 32 32 33 33 33 34 33 33 33 33 34 34 35 34 35 35 35 34 34 34 35 34 34 34 34 34 34 35 34 34 34 33 33 33 34 34 35 36 37 37 40 47 45 39 35 35 36 36 39 40 40 40 40 38 36 35 34 34 34 33 33 33 32 32 32 32 32 31 33 33 31 30 30 29 28 31 29 27